Ellsworth AFB, SD

7:14 AM MDT on June 26, 2017 (GMT -0600)
Ellsworth Air Force Base

Weather History for KRCA - December, 2012

Change the Weather History Date:

Thursday, December 6, 2012

  Actual Average Record
Temperature  
Mean Temperature 36 °F -  
Max Temperature 41 °F 40 °F 60 °F (2000)
Min Temperature 30 °F 19 °F -11 °F (2013)
Degree Days  
Heating Degree Days 30    
Moisture  
Dew Point 21 °F    
Average Humidity 60    
Maximum Humidity 93    
Minimum Humidity 26    
Precipitation  
Precipitation 0.00 in - - ()
Sea Level Pressure  
Sea Level Pressure 29.99 in    
Wind  
Wind Speed 11 mph (SSE)    
Max Wind Speed 21 mph    
Max Gust Speed 29 mph    
Visibility 8 miles    
Events Rain , Snow    
Averages and records for this station are not official NWS values.
T = Trace of Precipitation, MM = Missing Value Source: NWS Daily Summary

Daily Weather History Graph

Daily Weather History Graph

Search for Another Location

Airport or City:

Trip Planner

Search our weather history database for the weather conditions in past years. The results will help you decide how hot, cold, wet, or windy it might be!

Date:

Astronomy

Dec. 06, 2012 Rise Set
Actual Time 7:13 AM MST 4:13 PM MST
Civil Twilight 6:40 AM MST 4:46 PM MST
Nautical Twilight 6:04 AM MST 5:23 PM MST
Astronomical Twilight 5:29 AM MST 5:58 PM MST
Moon No Moon Rise 11:54 AM MST (12/6)
Length of Visible Light 10h 06m
Length of Day
9h 00m
Waning Gibbous, 48% of the Moon is Illuminated
Dec 6
Waning Gibbous
Dec 13
New
Dec 19
First Quarter
Dec 28
Full
Jan 4
Last Quarter

Hourly Weather History & Observations

Time (MST) Temp. Windchill Dew Point Humidity Pressure Visibility Wind Dir Wind Speed Gust Speed Precip Events Conditions
12:55 AM 39.4 °F 29.5 °F 21.9 °F 50% 29.95 in 10.0 mi NNW 20.7 mph 28.8 mph N/A   Overcast
1:55 AM 38.5 °F 28.6 °F 21.6 °F 51% 29.98 in 10.0 mi North 19.6 mph - N/A   Mostly Cloudy
2:55 AM 36.9 °F 27.1 °F 21.4 °F 54% 30.01 in 10.0 mi NNW 17.3 mph - N/A   Overcast
3:55 AM 36.1 °F 26.9 °F 16.2 °F 44% 30.01 in 10.0 mi NNW 15.0 mph 25.3 mph N/A   Overcast
4:55 AM 36.5 °F 28.2 °F 16.7 °F 45% 30.04 in 10.0 mi NW 12.7 mph - N/A   Overcast
5:55 AM 36.9 °F 28.7 °F 16.0 °F 43% 30.06 in 10.0 mi NW 12.7 mph - N/A   Overcast
6:55 AM 35.8 °F 28.3 °F 16.2 °F 45% 30.07 in 10.0 mi NW 10.4 mph - N/A   Overcast
7:55 AM 36.1 °F 29.9 °F 16.5 °F 45% 30.09 in 10.0 mi NW 8.1 mph - N/A   Overcast
8:55 AM 37.6 °F 34.0 °F 13.5 °F 37% 30.08 in 10.0 mi WNW 4.6 mph - N/A   Overcast
9:55 AM 39.9 °F 34.5 °F 8.1 °F 27% 30.08 in 10.0 mi WNW 8.1 mph - N/A   Overcast
10:55 AM 39.6 °F 37.4 °F 6.6 °F 26% 30.08 in 10.0 mi WNW 3.5 mph - N/A   Overcast
11:55 AM 40.1 °F 38.0 °F 7.9 °F 27% 30.06 in 10.0 mi SSW 3.5 mph - N/A   Overcast
12:55 PM 40.8 °F 37.8 °F 10.0 °F 28% 30.04 in 10.0 mi NW 4.6 mph - N/A   Overcast
1:55 PM 40.5 °F - 10.2 °F 29% 30.02 in 10.0 mi Calm Calm - N/A   Overcast
2:55 PM 41.0 °F 37.1 °F 13.3 °F 32% 30.00 in 10.0 mi SE 5.8 mph - N/A   Overcast
3:55 PM 39.9 °F 34.5 °F 20.7 °F 46% 30.01 in 10.0 mi South 8.1 mph - N/A   Overcast
4:55 PM 38.1 °F 31.7 °F 26.1 °F 62% 30.00 in 10.0 mi SSE 9.2 mph - N/A   Overcast
5:55 PM 36.9 °F 32.2 °F 27.3 °F 68% 30.00 in 10.0 mi South 5.8 mph - N/A   Overcast
6:55 PM 36.1 °F 28.7 °F 27.7 °F 71% 29.99 in 10.0 mi South 10.4 mph - N/A   Overcast
7:55 PM 35.8 °F 28.3 °F 22.1 °F 58% 29.97 in 10.0 mi South 10.4 mph - N/A   Overcast
8:55 PM 36.3 °F 30.8 °F 20.3 °F 52% 29.97 in 10.0 mi SSW 6.9 mph - N/A   Overcast
9:55 PM 36.7 °F 30.5 °F 19.6 °F 50% 29.96 in 10.0 mi SSE 8.1 mph - N/A   Overcast
10:06 PM 35.6 °F 27.1 °F 21.2 °F 56% 29.96 in 8.0 mi South 12.7 mph 20.7 mph N/A Snow Light Snow
10:07 PM 35.6 °F 27.1 °F 21.2 °F 56% 29.96 in 7.0 mi SSE 12.7 mph 20.7 mph N/A Snow Light Snow
10:10 PM 35.6 °F 29.9 °F 21.2 °F 56% 29.96 in 4.0 mi SSE 6.9 mph 20.7 mph N/A   Overcast
10:17 PM 35.6 °F 28.6 °F 24.8 °F 65% 29.96 in 4.0 mi South 9.2 mph - N/A Rain Light Rain
10:33 PM 33.8 °F 29.6 °F 24.8 °F 70% 29.96 in 3.0 mi ESE 4.6 mph - N/A Snow Light Snow
10:36 PM 33.8 °F 29.6 °F 24.8 °F 70% 29.96 in 3.0 mi ESE 4.6 mph - N/A Snow Light Snow
10:45 PM 33.8 °F 28.6 °F 24.8 °F 70% 29.96 in 7.0 mi East 5.8 mph - N/A   Overcast
10:47 PM 33.8 °F 28.6 °F 24.8 °F 70% 29.95 in 7.0 mi East 5.8 mph - N/A Snow Light Snow
10:55 PM 33.4 °F 27.3 °F 25.5 °F 73% 29.96 in 6.0 mi ENE 6.9 mph - 0.00 in Snow Light Snow
11:05 PM 33.8 °F 28.6 °F 24.8 °F 70% 29.96 in 10.0 mi East 5.8 mph - N/A   Overcast
11:06 PM 33.8 °F 28.6 °F 24.8 °F 70% 29.96 in 10.0 mi East 5.8 mph - N/A   Overcast
11:21 PM 32.0 °F 24.2 °F 24.8 °F 75% 29.96 in 4.0 mi SSE 9.2 mph - N/A Snow Light Snow
11:46 PM 30.2 °F 21.9 °F 28.4 °F 93% 29.94 in 3.0 mi SSE 9.2 mph - N/A Snow Light Snow
11:48 PM 30.2 °F 21.9 °F 28.4 °F 93% 29.94 in 2.5 mi SSE 9.2 mph - N/A Snow Light Snow
11:49 PM 30.2 °F 21.9 °F 28.4 °F 93% 29.94 in 3.0 mi SSE 9.2 mph - N/A Snow Light Snow
11:53 PM 30.2 °F 21.3 °F 28.4 °F 93% 29.94 in 2.5 mi SSE 10.4 mph - N/A Snow Light Snow
11:55 PM 30.0 °F 21.1 °F 28.2 °F 93% 29.94 in 2.5 mi SSE 10.4 mph - 0.00 in Snow Light Snow
11:57 PM 30.2 °F 20.8 °F 28.4 °F 93% 29.94 in 2.0 mi SSE 11.5 mph - N/A Snow Light Snow
11:59 PM 30.2 °F 20.2 °F 28.4 °F 93% 29.93 in 2.0 mi SSE 12.7 mph - N/A Snow Light Snow